This is the latest recevied weather packets stored in our database for station/object KQ4OSL. If no packets are shown the sender has not sent any weather packets the latest 1 day(s).
| Time | Temp. | Humidity | Pressure | Rain* | Wind** | Luminosity | Snow |
|---|---|---|---|---|---|---|---|
| 1778036305 | 18.33° C | 73% | 1015.4 hPa | 0 mm | 0.45 m/s, 244° | 0 W/m² | - |
| 1778036001 | 17.78° C | 74% | 1015.4 hPa | 0 mm | 0 m/s | 0 W/m² | - |
| 1778035699 | 17.78° C | 75% | 1015.2 hPa | 0 mm | 0 m/s | 0 W/m² | - |
| 1778035395 | 18.33° C | 73% | 1015.2 hPa | 0 mm | 0.45 m/s, 255° | 0 W/m² | - |
| 1778035091 | 18.33° C | 72% | 1015.4 hPa | 0 mm | 0 m/s | 0 W/m² | - |
| 1778034788 | 18.89° C | 71% | 1015.3 hPa | 0 mm | 0.45 m/s, 258° | 0 W/m² | - |
| 1778034485 | 18.89° C | 70% | 1015.1 hPa | 0 mm | 0.89 m/s, 233° | 0 W/m² | - |
| 1778034183 | 18.33° C | 72% | 1015.4 hPa | 0 mm | 0.45 m/s, 256° | 0 W/m² | - |
| 1778033881 | 18.89° C | 71% | 1015.1 hPa | 0 mm | 0.45 m/s, 257° | 0 W/m² | - |
| 1778033577 | 18.89° C | 72% | 1015.2 hPa | 0 mm | 0 m/s | 0 W/m² | - |
| 1778033274 | 18.89° C | 71% | 1015.2 hPa | 0 mm | 0.89 m/s, 244° | 0 W/m² | - |
| 1778032972 | 18.33° C | 77% | 1015.3 hPa | 0 mm | 0.45 m/s, 254° | 0 W/m² | - |
| 1778032669 | 18.33° C | 77% | 1015.2 hPa | 0 mm | 0 m/s | 0 W/m² | - |
| 1778032373 | 18.33° C | 76% | 1015.2 hPa | 0 mm | 0.45 m/s, 256° | 0 W/m² | - |
| 1778032063 | 18.33° C | 77% | 1015.3 hPa | 0 mm | 0 m/s | 0 W/m² | - |
| 1778031760 | 18.89° C | 75% | 1015 hPa | 0 mm | 0 m/s | 0 W/m² | - |
| 1778031457 | 19.44° C | 72% | 1014.9 hPa | 0 mm | 0 m/s | 0 W/m² | - |
| 1778031154 | 19.44° C | 70% | 1015.1 hPa | 0 mm | 0 m/s | 0 W/m² | - |
| 1778030850 | 20° C | 70% | 1015.1 hPa | 0 mm | 0 m/s | 0 W/m² | - |
| 1778030548 | 20° C | 69% | 1015.1 hPa | 0 mm | 0.45 m/s, 246° | 0 W/m² | - |
| 1778030245 | 19.44° C | 70% | 1015 hPa | 0 mm | 0 m/s | 0 W/m² | - |
| 1778029941 | 19.44° C | 71% | 1015.4 hPa | 0 mm | 0 m/s | 0 W/m² | - |
| 1778029640 | 19.44° C | 71% | 1015.1 hPa | 0 mm | 0 m/s | 0 W/m² | - |
| 1778029337 | 19.44° C | 71% | 1015 hPa | 0 mm | 0 m/s | 0 W/m² | - |
| 1778029034 | 20° C | 71% | 1014.8 hPa | 0 mm | 0 m/s | 0 W/m² | - |
* Rain latest hour (hover to see other rain measurements)
** Current wind speed in m/s (hover to see current wind gust speed)